Dickinson, ND

3:35 PM MST on November 19, 2017 (GMT -0700)
Dickinson Municipal

Weather History for KDIK - August, 2013

Change the Weather History Date:

Saturday, August 17, 2013

  Actual Average Record
Temperature  
Mean Temperature 75 °F 69 °F  
Max Temperature 92 °F 84 °F 103 °F (1934)
Min Temperature 57 °F 54 °F 38 °F (1910)
Degree Days  
Heating Degree Days 0 1  
Month to date heating degree days 8 17  
Since 1 June heating degree days 164 188  
Since 1 July heating degree days 40 51  
Cooling Degree Days 10 5  
Month to date cooling degree days 33 99  
Year to date cooling degree days 176 328  
Since 1 June cooling degree days 167 318  
Growing Degree Days 24 (Base 50)    
Moisture  
Dew Point 58 °F    
Average Humidity 61    
Maximum Humidity 93    
Minimum Humidity 28    
Precipitation  
Precipitation 0.00 in 0.04 in 1.25 in (1972)
Month to date precipitation 1.67 0.85  
Year to date precipitation 13.17 11.60  
Sea Level Pressure  
Sea Level Pressure 29.86 in    
Wind  
Wind Speed 10 mph (South)    
Max Wind Speed 22 mph    
Max Gust Speed 26 mph    
Visibility 10 miles    
Events      
T = Trace of Precipitation, MM = Missing Value Source: NWS Daily Summary

Daily Weather History Graph

Daily Weather History Graph

Search for Another Location

Airport or City:

Trip Planner

Search our weather history database for the weather conditions in past years. The results will help you decide how hot, cold, wet, or windy it might be!

Date:

Astronomy

Aug. 17, 2013 Rise Set
Actual Time 5:51 AM MDT 7:57 PM MDT
Civil Twilight 5:18 AM MDT 8:30 PM MDT
Nautical Twilight 4:38 AM MDT 9:11 PM MDT
Astronomical Twilight 3:52 AM MDT 9:56 PM MDT
Moon 5:21 PM MDT (8/17) 1:50 AM MDT (8/17)
Length of Visible Light 15h 11m
Length of Day
14h 05m
Waxing Gibbous, 85% of the Moon is Illuminated
Aug 17
Waxing Gibbous
Aug 20
Full
Aug 28
Last Quarter
Sep 5
New
Sep 12
First Quarter

Hourly Weather History & Observations

Time (MDT) Temp. Heat Index Dew Point Humidity Pressure Visibility Wind Dir Wind Speed Gust Speed Precip Events Conditions
12:56 AM 64.0 °F - 57.0 °F 78% 29.93 in 10.0 mi South 13.8 mph - N/A   Clear
1:56 AM 63.0 °F - 57.0 °F 81% 29.92 in 10.0 mi South 13.8 mph - N/A   Clear
2:56 AM 62.1 °F - 57.0 °F 84% 29.91 in 10.0 mi South 11.5 mph - N/A   Clear
3:56 AM 61.0 °F - 57.0 °F 87% 29.90 in 10.0 mi South 12.7 mph - N/A   Clear
4:56 AM 60.1 °F - 57.0 °F 90% 29.90 in 10.0 mi South 12.7 mph - N/A   Clear
5:56 AM 57.0 °F - 55.0 °F 93% 29.90 in 9.0 mi South 9.2 mph - N/A   Clear
6:56 AM 60.1 °F - 57.0 °F 90% 29.90 in 10.0 mi South 8.1 mph - N/A   Clear
7:56 AM 64.9 °F - 60.1 °F 84% 29.91 in 10.0 mi South 8.1 mph - N/A   Clear
8:56 AM 72.0 °F - 62.1 °F 71% 29.89 in 10.0 mi South 9.2 mph - N/A   Clear
9:56 AM 78.1 °F - 64.0 °F 62% 29.88 in 10.0 mi SSE 9.2 mph - N/A   Clear
10:56 AM 82.9 °F 83.3 °F 61.0 °F 47% 29.88 in 10.0 mi South 11.5 mph - N/A   Clear
11:56 AM 88.0 °F 87.1 °F 59.0 °F 37% 29.85 in 10.0 mi South 12.7 mph - N/A   Clear
12:56 PM 91.9 °F 90.3 °F 55.9 °F 30% 29.83 in 10.0 mi SSE 18.4 mph 25.3 mph N/A   Clear
1:56 PM 91.0 °F 88.9 °F 55.0 °F 29% 29.82 in 10.0 mi South 17.3 mph - N/A   Clear
2:56 PM 91.9 °F 90.0 °F 55.0 °F 29% 29.81 in 10.0 mi South 15.0 mph - N/A   Clear
3:56 PM 91.9 °F 89.5 °F 54.0 °F 27% 29.81 in 10.0 mi South 13.8 mph - N/A   Clear
4:56 PM 90.0 °F 88.6 °F 57.0 °F 33% 29.80 in 10.0 mi South 10.4 mph - N/A   Clear
5:56 PM 86.0 °F 86.3 °F 62.1 °F 44% 29.81 in 10.0 mi SSW 6.9 mph - N/A   Clear
6:56 PM 81.0 °F 81.7 °F 61.0 °F 50% 29.81 in 10.0 mi SSE 6.9 mph - N/A   Clear
7:56 PM 77.0 °F - 57.9 °F 52% 29.82 in 10.0 mi WSW 9.2 mph - N/A   Clear
8:56 PM 73.0 °F - 57.9 °F 59% 29.82 in 10.0 mi WSW 6.9 mph - N/A   Clear
9:56 PM 70.0 °F - 57.9 °F 65% 29.83 in 10.0 mi SSW 3.5 mph - N/A   Clear
10:56 PM 66.0 °F - 57.9 °F 75% 29.84 in 10.0 mi SSW 4.6 mph - N/A   Clear
11:56 PM 64.9 °F - 57.9 °F 78% 29.85 in 10.0 mi WNW 5.8 mph - N/A   Clear